Date,TemperatureHighF,TemperatureAvgF,TemperatureLowF,DewpointHighF,DewpointAvgF,DewpointLowF,HumidityHigh,HumidityAvg,HumidityLow,PressureMaxIn,PressureMinIn,WindSpeedMaxMPH,WindSpeedAvgMPH,GustSpeedMaxMPH,PrecipitationSumIn
2013-1-1,43,39,36,31,28,22,73,63,56,29.99,29.87,0,0,4,0.00
2013-1-2,38,34,29,29,20,13,69,56,46,30.21,29.96,3,0,9,0.00
2013-1-3,37,30,25,20,17,13,78,58,44,30.23,30.12,1,0,4,0.00
2013-1-4,43,34,24,22,20,18,83,60,40,30.18,30.08,7,1,16,0.00
2013-1-5,43,36,28,31,21,18,73,55,40,30.34,30.12,2,0,9,0.00
2013-1-6,52,42,29,34,28,25,92,60,39,30.16,29.99,3,0,13,0.00
2013-1-7,45,40,28,30,26,22,79,58,46,30.40,30.11,2,0,14,0.00
2013-1-8,52,38,26,34,29,22,92,72,47,30.39,30.33,1,0,7,0.00
2013-1-9,50,40,30,42,35,27,96,84,45,30.35,30.20,2,0,9,0.01
2013-1-10,52,47,38,31,29,26,65,50,36,30.57,30.34,3,0,13,0.00
2013-1-11,45,41,34,42,35,28,97,81,62,30.47,30.06,0,0,4,0.04
2013-1-12,54,45,41,48,43,41,100,93,79,30.14,30.06,1,0,4,0.00
2013-1-13,56,49,42,56,49,41,100,99,95,30.11,29.93,0,0,4,0.01
2013-1-14,59,53,40,59,48,37,100,83,61,30.27,29.90,7,2,15,0.14
2013-1-15,40,39,36,40,38,36,99,97,90,30.30,30.12,6,2,10,1.03
2013-1-16,41,38,35,41,38,35,100,100,99,30.13,29.82,6,1,11,0.40
2013-1-17,43,40,38,41,35,30,100,82,62,30.10,29.93,5,1,10,0.02
2013-1-18,38,33,27,30,19,10,74,57,36,30.46,30.00,8,2,17,0.00
2013-1-19,52,41,30,31,26,21,78,58,41,30.40,29.92,6,3,14,0.00
2013-1-20,58,46,35,33,22,8,65,42,19,30.04,29.79,10,3,22,0.00
2013-1-21,44,36,30,27,19,11,57,49,38,30.06,29.75,7,2,22,0.00
2013-1-22,30,21,17,12,-2,-7,48,37,27,30.27,29.90,10,5,20,0.00
2013-1-23,26,20,12,12,1,-3,64,43,28,30.33,30.12,7,1,13,0.00
2013-1-24,26,21,16,15,9,0,86,62,34,30.49,30.06,9,2,16,0.02
2013-1-25,24,20,16,15,4,0,78,51,39,30.49,30.10,4,0,11,0.00
2013-1-27,32,28,27,21,19,17,76,68,56,30.49,30.46,0,0,8,0.01
2013-1-28,44,36,28,44,33,21,98,90,74,30.47,30.02,5,1,10,0.13
2013-1-29,67,53,40,53,47,39,100,82,59,30.08,29.93,4,0,11,0.00
2013-1-30,69,61,54,62,57,51,99,88,74,29.93,29.17,9,3,20,1.18
2013-1-31,62,44,30,62,28,11,100,57,32,29.88,29.12,12,6,28,0.90
2013-2-1,32,26,19,24,11,2,85,53,36,30.36,29.77,12,4,23,0.02
2013-2-2,31,24,15,26,13,3,90,64,40,30.37,29.98,3,0,15,0.00
2013-2-3,33,29,23,29,25,17,94,84,54,29.98,29.80,7,0,13,0.00
2013-2-4,35,30,24,22,16,11,65,54,44,30.07,29.86,6,1,14,0.00
2013-2-5,41,35,30,29,26,21,79,68,57,29.90,29.81,0,0,2,0.00
2013-2-6,46,37,29,32,26,21,90,66,46,30.32,29.90,6,1,14,0.00
2013-2-7,40,34,26,30,25,20,86,71,57,30.41,30.16,4,0,11,0.00
2013-2-8,42,37,33,39,32,22,98,85,57,30.16,29.71,11,3,23,0.19
2013-2-9,40,29,29,22,0,-100,64,45,36,30.36,29.89,10,-145,23,0.00
2013-2-10,43,34,21,26,18,14,83,53,30,30.45,30.20,3,0,11,0.00
2013-2-11,52,44,37,52,42,26,100,95,63,30.20,29.67,4,1,11,0.18
2013-2-12,55,48,40,39,28,24,83,48,31,29.95,29.77,8,2,14,0.00
2013-2-13,46,38,32,37,30,24,96,74,56,29.91,29.62,5,1,11,0.25
2013-2-14,48,38,31,34,29,24,97,73,40,29.98,29.74,4,1,10,0.00
2013-2-15,59,43,31,38,32,27,94,70,33,29.99,29.85,8,1,14,0.09
2013-2-16,38,36,31,35,29,15,96,78,49,29.97,29.80,7,3,15,0.00
2013-2-17,31,28,24,16,10,3,63,49,34,30.18,29.80,12,6,26,0.00
2013-2-18,41,30,20,18,9,5,59,43,26,30.35,30.13,6,1,16,0.00
2013-2-19,44,39,34,42,30,17,94,73,51,30.13,29.69,6,2,13,0.09
2013-2-20,38,33,25,24,14,8,57,46,36,30.14,29.81,10,5,22,0.00
2013-2-21,38,30,24,17,13,8,58,49,38,30.29,30.10,8,4,16,0.00
2013-2-22,33,31,30,30,23,16,92,72,55,30.34,30.18,5,0,11,0.03
2013-2-23,44,38,32,44,38,30,100,97,92,30.18,29.77,4,1,8,0.00
2013-2-24,51,42,32,42,31,18,98,69,36,30.08,29.75,10,3,26,0.00
2013-2-25,46,36,28,25,22,18,73,56,39,30.18,30.07,5,1,11,0.00
2013-2-26,44,36,28,44,33,22,100,88,71,30.19,29.56,9,2,17,0.79
2013-2-27,56,47,39,44,38,32,100,76,46,29.66,29.48,9,2,11,0.00
2013-2-28,48,43,40,38,30,22,84,61,37,29.69,29.59,10,2,17,0.00
2013-3-1,44,40,36,30,27,23,67,60,49,29.85,29.69,6,3,15,0.00
2013-3-2,37,33,30,24,21,19,70,61,50,29.85,29.78,6,2,14,0.00
2013-3-3,41,33,28,21,18,15,70,55,38,29.89,29.76,8,3,18,0.00
2013-3-4,42,34,28,18,16,13,60,48,33,30.00,29.88,9,3,18,0.00
2013-3-5,50,39,29,31,19,11,77,47,21,30.04,29.76,3,0,10,0.00
2013-3-6,38,35,33,36,33,31,99,94,78,29.96,29.56,14,7,33,0.68
2013-3-7,48,41,32,32,28,25,83,62,43,30.11,29.95,9,3,20,0.00
2013-3-8,49,42,36,29,27,24,72,57,43,30.22,30.09,12,4,23,0.00
2013-3-9,59,45,34,27,25,19,67,48,23,30.31,30.21,6,1,11,0.00
2013-3-10,61,46,30,34,25,17,89,50,19,30.29,30.17,4,1,16,0.00
2013-3-11,60,51,43,50,44,34,94,78,65,30.20,29.90,5,1,14,0.00
2013-3-12,57,53,42,56,46,30,99,76,53,29.92,29.65,8,4,21,0.94
2013-3-13,50,41,31,32,25,17,88,56,27,30.03,29.86,9,3,23,0.00
2013-3-14,45,37,32,20,16,12,56,43,27,30.10,29.99,11,5,28,0.00
2013-3-15,57,42,28,32,23,16,74,50,27,30.06,29.74,6,1,17,0.00
2013-3-16,60,48,38,51,37,31,83,68,48,29.86,29.59,9,1,16,0.02
2013-3-17,41,38,32,34,30,26,91,74,59,30.23,29.86,5,1,11,0.00
2013-3-18,37,35,32,33,27,21,91,74,53,30.29,30.13,3,0,13,0.02
2013-3-31,51,50,46,50,48,44,94,93,92,29.75,29.71,2,0,10,0.02
2013-4-1,67,48,38,50,36,22,100,67,34,29.94,29.69,9,2,21,0.00
2013-4-2,49,42,35,22,15,10,48,34,22,30.14,29.95,9,3,24,0.00
2013-4-3,51,40,28,19,15,10,67,39,19,30.35,30.14,9,3,23,0.00
2013-4-4,49,38,25,34,19,12,84,49,24,30.38,30.05,3,1,13,0.09
2013-4-5,64,49,38,42,31,19,97,58,22,30.05,29.78,7,2,20,0.12
2013-4-6,56,47,36,32,21,15,60,37,21,30.29,30.00,7,2,15,0.00
2013-4-7,69,54,38,42,35,29,79,53,31,30.24,29.94,7,2,18,0.00
2013-4-8,80,66,49,50,44,41,79,48,27,30.03,29.89,4,1,13,0.00
2013-4-9,85,73,59,58,51,47,78,48,28,30.03,29.88,5,-33,15,0.00
2013-4-10,90,78,62,57,53,50,73,45,26,29.93,29.73,6,1,16,0.00
2013-4-11,86,72,56,60,56,46,87,60,31,29.83,29.67,8,1,18,0.00
2013-4-12,74,61,52,68,58,50,100,89,74,29.76,29.52,7,2,17,0.82
2013-4-13,69,57,43,52,40,35,89,57,30,29.90,29.71,7,1,20,0.00
2013-4-14,67,56,42,44,39,34,87,57,31,30.10,29.91,7,1,15,0.00
2013-4-15,63,58,54,52,47,43,80,67,60,30.25,30.08,5,0,13,0.00
2013-4-16,75,64,55,59,54,47,86,72,54,30.27,30.07,6,1,16,0.00
2013-4-17,78,66,58,63,58,55,98,77,53,30.19,30.07,8,1,17,0.06
2013-4-18,77,66,59,64,59,55,100,79,55,30.18,29.96,7,1,18,0.12
2013-4-19,77,67,52,67,61,50,95,81,62,29.96,29.55,9,2,20,1.01
2013-4-20,60,54,48,50,37,24,91,58,27,30.29,29.75,6,2,17,2.07
2013-4-21,54,46,39,31,25,19,65,44,27,30.56,30.30,9,2,18,0.00
2013-4-22,56,47,35,42,35,31,90,65,48,30.54,30.37,9,2,20,0.00
2013-4-23,60,51,47,45,40,36,81,67,54,30.37,30.09,6,3,11,0.00
2013-4-24,77,61,47,56,48,42,87,65,40,30.09,29.76,7,2,25,0.00
2013-4-25,64,56,50,49,36,25,70,47,24,30.28,29.94,7,2,16,0.00
2013-4-26,66,54,45,40,36,30,77,56,27,30.42,30.27,5,1,11,0.00
2013-4-27,71,57,46,41,38,33,75,54,26,30.38,30.25,3,-306,10,0.00
2013-4-28,66,56,50,52,44,37,83,65,35,30.25,30.11,4,0,13,0.01
2013-5-5,54,53,51,46,46,46,81,77,75,30.15,30.13,1,0,7,0.00
2013-5-6,62,55,50,57,51,44,95,87,79,30.15,30.02,7,2,16,0.01
2013-5-7,63,60,58,63,59,57,100,99,95,30.02,29.89,7,3,18,0.80
2013-5-8,60,59,59,60,59,59,100,100,100,29.94,29.94,0,0,8,0.85
2013-5-12,50,49,48,33,33,31,55,52,50,30.01,29.99,0,0,2,0.00
2013-5-13,62,50,40,38,30,21,86,49,24,30.15,30.00,6,2,29,0.00
2013-5-14,65,51,36,40,34,28,92,56,27,30.19,30.02,4,0,15,0.00
2013-5-15,85,66,52,64,53,40,82,63,44,30.02,29.65,4,0,14,0.00
2013-5-16,83,73,63,66,59,55,86,64,40,29.89,29.72,5,1,18,0.01
2013-5-17,83,71,59,60,54,48,92,58,34,30.10,29.89,3,1,11,0.00
2013-5-18,66,62,59,60,57,52,96,82,59,30.22,30.10,3,0,9,0.08
2013-5-19,75,66,59,67,63,58,100,92,72,30.18,30.05,2,0,10,0.00
2013-5-20,80,71,65,70,66,63,97,85,66,30.09,29.95,3,0,10,0.00
2013-5-21,82,73,67,71,68,65,98,85,66,29.97,29.85,3,1,10,0.00
2013-5-22,86,77,69,73,69,64,99,79,58,29.90,29.80,5,1,14,0.02
2013-5-23,82,72,64,69,67,62,95,83,58,29.88,29.72,5,1,20,1.59
2013-5-24,64,57,48,63,48,33,98,74,51,30.13,29.71,7,3,21,0.01
2013-5-25,66,54,44,40,35,31,67,50,28,30.17,30.06,7,3,21,0.00
2013-5-26,73,60,48,45,37,32,74,44,24,30.20,30.09,6,2,21,0.00
2013-5-27,70,60,47,50,45,37,85,60,32,30.26,30.16,2,0,9,0.00
2013-5-28,83,67,57,70,60,49,97,79,55,30.17,30.03,4,0,14,1.18
2013-5-29,87,75,64,73,66,63,100,78,47,30.10,30.04,4,1,11,0.00
2013-5-30,90,78,66,69,66,62,93,69,44,30.15,30.07,4,1,10,0.00
2013-5-31,90,78,65,69,65,62,95,66,42,30.13,29.99,41,1,186,0.00
2013-6-1,90,79,69,71,66,63,85,65,47,30.01,29.89,4,1,13,0.00
2013-6-2,84,77,70,72,67,63,96,74,59,29.89,29.81,4,1,13,0.39
2013-6-3,74,70,68,69,66,56,99,88,62,29.92,29.81,2,0,11,0.77
2013-6-4,75,66,58,57,49,41,88,55,32,30.10,29.92,7,2,15,0.00
2013-6-5,79,66,54,60,54,48,97,68,40,30.15,30.02,4,1,10,0.00
2013-6-6,73,67,62,65,60,54,98,79,68,30.06,29.83,4,1,11,0.55
2013-6-7,70,68,65,70,68,65,100,100,98,29.83,29.56,7,1,14,2.09
2013-6-8,79,70,64,66,62,57,100,79,48,30.06,29.67,4,1,11,0.00
2013-6-9,81,72,64,71,65,60,93,79,61,30.16,30.06,4,1,10,0.00
2013-6-10,78,72,69,76,71,66,100,95,83,30.07,29.76,4,0,13,3.06
2013-6-11,82,73,66,71,66,62,100,80,55,29.82,29.75,5,1,14,0.00
2013-6-12,88,77,66,70,66,62,92,71,44,29.84,29.75,6,1,16,0.00
2013-6-13,86,74,68,75,68,56,97,80,53,29.77,29.43,5,1,21,0.16
2013-6-14,78,69,61,59,54,48,83,60,40,29.95,29.56,11,3,21,0.00
2013-6-15,82,71,61,60,57,51,83,62,37,30.05,29.95,5,1,13,0.00
2013-6-16,84,74,64,69,64,59,91,73,52,30.00,29.86,4,0,15,0.00
2013-6-17,86,77,69,72,68,65,93,75,56,29.93,29.84,2,0,9,0.00
2013-6-18,76,71,65,71,68,64,97,90,78,29.88,29.77,5,0,9,0.40
2013-6-19,75,68,64,66,64,60,98,85,67,30.14,29.86,5,1,10,0.00
2013-6-20,78,69,60,65,60,54,98,74,48,30.25,30.14,4,1,9,0.00
2013-6-21,81,70,57,63,56,50,94,65,36,30.28,30.21,3,0,11,0.00
2013-6-22,85,74,62,68,64,60,96,74,50,30.23,30.11,4,1,13,0.00
2013-6-23,84,75,69,74,70,66,100,85,64,30.16,30.05,4,0,8,1.58
2013-6-24,89,76,70,76,71,67,98,84,52,30.10,30.01,3,0,13,0.03
2013-6-25,90,79,68,76,70,63,100,75,49,30.01,29.87,7,1,18,0.14
2013-6-26,88,76,68,77,70,66,98,81,59,29.90,29.78,3,0,8,0.01
2013-6-27,80,75,72,73,70,68,94,85,77,29.81,29.60,4,0,10,0.00
2013-6-28,88,74,69,74,70,68,100,87,56,29.61,29.47,5,0,24,1.72
2013-6-29,86,75,66,72,66,60,100,78,46,29.67,29.51,3,1,9,0.18
2013-6-30,85,77,71,76,73,69,97,87,69,29.83,29.67,3,0,9,0.04
2013-7-1,82,77,71,77,73,68,98,88,70,29.95,29.82,4,1,11,0.03
2013-7-2,81,75,29,75,72,28,97,90,77,30.16,29.96,4,1,11,0.01
2013-7-3,82,68,29,79,66,28,100,95,80,30.21,30.14,2,0,11,0.02
2013-7-4,76,75,75,74,72,72,96,92,92,30.24,30.19,2,0,7,0.00
2013-7-6,88,83,78,73,71,70,76,68,58,30.10,30.05,2,0,13,0.08
2013-7-7,89,79,71,76,72,67,98,81,60,30.10,29.97,5,1,13,0.30
2013-7-8,83,75,70,76,71,68,100,87,60,30.10,30.02,2,0,7,0.38
2013-7-9,83,76,70,77,72,68,95,86,72,30.09,29.98,2,-81,13,0.02
2013-7-10,87,79,73,77,74,71,95,87,63,29.99,29.83,4,0,14,0.50
2013-7-11,84,76,72,74,71,67,99,86,61,29.90,29.82,6,1,13,0.00
2013-7-12,76,70,67,73,68,66,100,95,79,30.01,29.87,8,2,17,2.05
2013-7-13,84,75,69,74,71,68,99,87,69,30.25,30.01,4,0,9,0.00
2013-7-14,88,80,74,76,73,69,99,81,58,30.31,30.25,4,1,9,0.00
2013-7-15,92,81,72,76,72,69,98,77,50,30.28,30.17,6,1,10,0.00
2013-7-16,92,83,77,75,72,67,88,70,46,30.22,30.14,7,2,14,0.00
2013-7-17,93,83,75,75,72,68,90,72,48,30.19,30.07,4,0,8,0.00
2013-7-18,94,84,75,79,75,72,94,76,53,30.09,29.97,3,1,9,0.00
2013-7-19,94,85,77,79,76,74,92,76,54,29.99,29.85,4,1,11,0.00
2013-8-2,81,76,71,66,66,64,83,70,57,29.93,29.89,1,0,9,0.00
2013-8-3,79,72,67,71,66,63,97,83,61,29.95,29.89,7,1,13,0.07
2013-8-4,80,71,63,66,60,52,96,71,41,30.01,29.89,8,2,20,0.01
2013-8-5,80,68,58,60,56,49,91,69,39,30.09,29.99,6,1,9,0.00
2013-8-6,72,69,67,68,64,60,96,84,77,30.06,29.98,2,-18,6,0.00
2013-8-7,82,75,70,73,69,67,97,84,71,30.05,29.97,6,1,11,0.00
2013-8-8,84,78,76,77,72,-100,96,84,69,30.01,29.95,5,1,11,0.08
2013-8-9,89,81,75,78,74,70,97,80,60,29.95,29.83,6,1,15,0.00
2013-8-10,84,79,72,70,66,59,79,67,46,30.06,29.91,3,1,10,0.00
2013-8-11,82,76,72,71,67,64,86,74,54,30.09,29.98,3,0,9,0.00
2013-8-12,87,78,73,74,68,62,86,74,43,30.00,29.88,7,1,13,0.00
2013-8-13,84,77,71,74,70,67,96,81,60,29.88,29.71,4,-160,11,0.41
2013-8-14,73,70,60,69,60,49,94,73,48,30.08,29.79,7,2,21,0.01
2013-8-15,76,65,55,56,52,46,90,67,36,30.17,30.07,6,1,10,0.00
2013-8-16,77,66,55,66,56,52,97,72,45,30.18,30.12,3,0,7,0.00
2013-8-17,72,61,57,62,57,54,96,86,61,30.24,30.18,6,0,10,0.00
2013-8-18,71,69,66,66,63,58,96,81,72,30.21,30.15,6,0,11,0.05
2013-8-19,73,68,61,67,64,59,98,87,79,30.16,30.06,2,0,8,0.00
2013-8-20,85,75,70,72,67,64,94,77,51,30.15,30.07,4,0,9,0.00
2013-8-21,86,78,72,74,70,68,89,78,57,30.17,30.05,3,0,11,0.04
2013-8-22,86,78,71,71,69,62,98,75,51,30.07,29.91,4,1,15,0.00
2013-8-23,75,72,62,71,66,59,97,83,70,30.10,29.91,7,1,14,0.03
2013-8-24,80,68,60,70,60,56,97,76,45,30.32,30.10,7,-10,11,0.00
2013-8-25,80,69,60,66,59,55,97,72,46,30.39,30.25,4,1,11,0.00
2013-8-26,85,73,64,66,61,57,82,68,43,30.27,29.99,4,1,14,0.00
2013-8-27,88,79,73,71,68,65,76,69,53,29.99,29.85,6,1,13,0.00
2013-8-28,79,77,75,75,72,66,96,85,74,29.89,29.80,1,0,9,0.13
2013-8-29,82,76,72,74,71,68,99,85,64,30.00,29.80,6,2,13,0.00
2013-8-30,84,77,73,71,69,68,88,77,61,30.02,29.87,4,1,13,0.00
2013-8-31,88,80,75,74,71,68,83,76,61,29.88,29.77,4,1,11,0.00
2013-9-1,89,80,75,74,70,68,87,73,54,29.82,29.73,2,0,8,0.00
2013-9-2,87,78,70,74,71,68,98,80,57,29.78,29.70,4,0,8,0.11
2013-9-3,82,77,69,72,63,55,91,65,41,29.93,29.70,5,2,17,0.00
2013-9-4,80,69,58,65,56,48,91,66,34,30.06,29.93,6,1,11,0.00
2013-9-5,82,71,59,63,58,49,96,68,45,30.10,29.98,8,-32,20,0.00
2013-9-6,75,70,59,53,49,43,79,49,34,30.23,30.10,5,-442,13,0.00
2013-9-7,78,66,53,65,57,50,96,76,54,30.12,29.91,4,1,13,0.00
2013-9-8,86,74,67,66,63,62,84,69,48,30.02,29.85,7,1,13,0.00
2013-9-9,78,74,66,68,63,52,86,69,60,30.18,30.02,4,1,9,0.00
2013-9-10,88,79,72,74,71,68,93,78,55,30.16,30.06,3,1,10,0.00
2013-9-11,91,83,78,76,72,68,84,71,48,30.12,29.97,3,-68,11,0.00
2013-9-12,89,79,70,74,71,69,95,77,56,29.97,29.72,6,-441,13,0.43
2013-9-13,75,70,64,69,60,48,95,72,40,29.92,29.67,7,2,16,0.00
2013-9-14,67,60,52,50,47,43,84,62,44,30.15,29.92,7,2,14,0.00
2013-9-15,74,60,47,58,51,44,97,74,48,30.22,30.07,2,0,8,0.00
2013-9-16,71,64,60,62,57,55,94,80,60,30.20,30.01,5,-79,13,0.00
2013-9-17,66,60,49,55,48,38,83,67,36,30.41,30.21,7,-427,10,0.00
2013-9-18,69,56,44,53,46,42,97,72,39,30.33,30.17,1,0,7,0.00
2013-9-19,75,62,50,64,54,47,96,76,53,30.18,30.06,1,0,8,0.00
2013-9-20,78,66,54,62,58,52,97,77,55,30.07,29.94,1,-29,10,0.00
2013-9-21,74,67,61,66,62,57,95,85,66,29.95,29.66,5,-76,15,0.41
2013-9-22,70,64,58,66,56,47,100,76,53,29.92,29.70,7,-155,13,0.00
2013-9-23,63,57,50,48,46,43,86,67,51,30.07,29.92,7,2,14,0.00
2013-9-24,69,56,45,51,47,43,96,75,45,30.10,29.93,6,1,11,0.00
2013-9-25,71,58,48,56,49,40,96,75,38,29.97,29.86,6,-10,9,0.00
2013-9-26,72,61,54,62,53,50,96,77,51,30.05,29.90,4,1,10,0.00
2013-9-27,71,61,52,62,56,50,99,84,63,30.22,30.05,4,0,9,0.00
2013-9-28,67,62,58,56,54,52,86,78,62,30.28,30.20,5,1,14,0.00
2013-9-29,70,59,48,60,53,47,99,82,60,30.20,30.04,4,0,8,0.00
2013-9-30,73,60,50,59,53,48,98,79,54,30.08,29.96,1,0,6,0.00
2013-10-1,78,67,60,63,58,54,91,74,49,30.06,29.95,3,0,9,0.00
2013-10-2,82,69,57,65,60,55,99,76,45,30.07,29.98,3,0,11,0.00
2013-10-3,80,73,68,68,63,60,85,72,58,30.10,30.01,4,0,7,0.00
2013-10-4,83,74,68,69,65,63,98,75,53,30.07,29.98,4,0,8,0.00
2013-10-5,85,76,72,69,66,64,83,72,49,30.07,29.97,3,-59,8,0.00
2013-10-6,85,75,68,70,65,63,90,74,50,30.00,29.89,4,-3,14,0.00
2013-10-7,77,69,56,65,62,46,96,78,66,30.03,29.77,4,0,14,0.31
2013-10-8,65,57,50,50,47,45,89,71,51,30.26,30.03,8,2,16,0.00
2013-10-9,60,57,52,52,50,47,89,79,70,30.30,30.18,9,4,17,0.00
2013-10-10,60,56,53,56,54,45,100,92,74,30.18,29.96,8,4,11,0.93
2013-10-11,62,58,56,62,58,56,100,100,100,29.96,29.91,6,4,10,0.01
2013-10-12,66,62,60,63,61,58,100,96,82,30.13,29.95,8,4,15,0.04
2013-10-13,62,60,58,62,59,56,98,96,89,30.30,30.13,7,-675,14,0.00
2013-10-14,66,61,54,56,55,48,92,83,66,30.32,30.20,5,1,11,0.00
2013-10-15,68,58,50,57,51,44,99,80,42,30.23,30.07,5,-92,10,0.00
2013-10-16,70,63,58,63,58,53,92,83,75,30.07,29.89,2,-401,8,0.00
2013-10-17,74,67,63,66,62,56,99,84,70,29.89,29.71,4,1,13,0.00
2013-10-18,64,58,48,56,46,41,88,68,47,30.00,29.80,7,2,16,0.00
2013-10-19,64,55,45,58,51,43,98,87,67,29.99,29.77,4,0,15,0.00
2013-10-20,61,54,44,58,42,34,92,66,38,30.09,29.84,5,1,15,0.00
2013-10-21,64,51,39,52,42,37,97,73,38,30.14,29.94,4,1,11,0.00
2013-10-22,63,54,46,54,46,38,97,77,60,29.94,29.80,6,1,14,0.00
2013-10-23,56,50,44,44,39,32,92,67,42,29.89,29.64,4,1,14,0.03
2013-10-24,51,44,38,37,31,25,79,62,41,30.12,29.89,6,2,18,0.00
2013-10-25,53,44,36,34,31,29,79,63,45,30.31,30.12,6,2,16,0.00
2013-10-26,54,44,30,34,30,27,93,62,38,30.29,29.92,5,1,17,0.00
2013-10-27,59,48,38,41,36,32,92,65,42,30.13,29.93,6,1,17,0.00
2013-10-28,62,47,37,46,39,34,97,75,44,30.26,30.12,6,0,10,0.00
2013-10-29,61,48,38,46,40,-100,96,76,49,30.36,30.25,5,-11,7,0.00
2013-10-30,62,54,48,56,51,45,98,89,80,30.30,30.13,2,0,10,0.06
2013-10-31,67,60,53,60,57,52,100,90,77,30.16,29.75,4,1,14,0.01
2013-11-1,71,66,59,64,60,56,96,82,63,29.75,29.57,5,1,17,0.17
2013-11-2,68,58,50,57,46,37,95,68,45,29.86,29.62,7,1,13,0.00
2013-11-3,55,48,40,42,33,20,85,59,27,30.43,29.86,8,2,18,0.00
2013-11-4,45,39,31,28,24,20,73,56,38,30.62,30.43,8,2,14,0.00
2013-11-5,56,46,35,47,39,27,85,75,64,30.59,30.43,4,0,8,0.00
2013-11-6,67,57,50,53,50,46,92,77,57,30.43,30.03,4,1,14,0.00
2013-11-7,60,54,44,58,46,23,98,78,42,30.06,29.85,7,2,17,0.03
2013-11-8,50,41,33,30,26,22,80,57,34,30.30,30.06,8,2,21,0.00
2013-11-9,53,42,28,34,28,25,92,60,37,30.34,30.01,5,1,14,0.00
2013-11-10,63,49,40,37,30,26,67,49,27,30.20,29.92,8,2,22,0.00
2013-11-11,56,48,35,32,30,27,79,51,36,30.29,29.97,5,2,14,0.00
2013-11-12,50,41,31,38,23,13,64,49,38,30.38,29.94,10,3,21,0.00
2013-11-13,41,34,29,21,19,16,66,54,41,30.46,30.38,9,2,21,0.00
2013-11-14,55,38,25,24,20,14,78,52,21,30.37,30.20,3,0,9,0.00
2013-11-15,59,43,28,40,28,22,89,59,27,30.26,30.16,3,0,8,0.12
2013-11-16,52,49,44,51,48,40,99,96,81,30.29,30.20,2,0,7,0.48
2013-11-17,62,56,51,59,55,50,100,96,86,30.20,29.72,4,1,14,0.00
2013-11-18,67,59,50,62,39,24,98,56,21,29.92,29.66,8,4,23,0.26
2013-11-19,50,44,38,28,26,25,61,50,40,30.34,29.91,8,4,24,0.00
2013-11-20,46,38,32,28,25,22,79,61,42,30.53,30.34,8,2,14,0.00
2013-11-21,50,41,30,39,33,25,92,75,60,30.54,30.37,5,0,9,0.00
2013-11-22,63,54,45,54,47,39,87,79,66,30.37,29.97,5,0,11,0.00
2013-11-23,58,44,32,49,27,11,73,51,34,30.17,29.99,9,5,23,0.00
2013-11-24,32,27,23,11,4,-100,51,39,29,30.50,30.17,9,-6,21,0.00
2013-11-25,35,28,19,14,9,6,67,45,29,30.56,30.31,4,2,13,0.00
2013-11-26,44,36,34,44,28,12,100,77,38,30.31,29.58,8,1,16,2.11
2013-11-27,39,36,29,38,32,14,100,87,53,30.02,29.48,11,5,23,0.59
2013-11-28,36,30,25,24,16,12,79,55,41,30.44,30.02,8,3,18,0.00
2013-11-29,40,32,24,24,20,19,85,64,43,30.69,30.43,9,2,16,0.00
2013-11-30,37,30,22,26,20,18,85,67,49,30.69,30.34,4,0,10,0.00
2013-12-1,48,37,24,32,27,21,92,69,49,30.34,29.98,4,0,8,0.00
2013-12-2,48,43,40,40,36,31,83,77,70,29.98,29.84,2,0,8,0.00
2013-12-3,55,45,39,40,37,34,89,74,53,29.95,29.84,4,0,8,0.00
2013-12-4,56,47,38,50,43,36,96,86,74,30.05,29.95,2,0,4,0.00
2013-12-5,69,60,52,61,56,50,99,89,70,30.02,29.89,6,2,14,0.01
2013-12-6,64,50,38,64,50,38,100,98,95,30.13,29.84,7,3,17,0.95
2013-12-7,42,37,31,38,31,21,99,79,60,30.51,30.11,7,3,15,0.21
2013-12-8,32,30,28,31,25,19,98,83,66,30.57,30.27,7,2,13,1.00
2013-12-9,34,33,32,34,32,31,100,99,98,30.28,30.00,1,0,4,0.64
2013-12-10,35,32,26,35,31,23,100,96,75,30.20,29.97,7,1,16,0.31
2013-12-11,39,29,20,25,21,18,95,75,46,30.38,30.20,4,0,9,0.00
2013-12-12,30,26,21,23,15,10,89,62,44,30.42,30.22,6,2,17,0.00
2013-12-13,41,31,21,25,17,13,82,58,35,30.28,30.19,5,1,14,0.00
2013-12-14,39,35,31,36,31,24,98,85,77,30.29,29.67,6,1,11,0.49
2013-12-15,46,37,29,40,30,22,100,79,56,29.91,29.60,8,2,18,0.00
2013-12-16,37,34,30,27,24,22,83,69,58,30.16,29.91,5,1,10,0.00
2013-12-17,40,36,33,34,30,26,93,81,74,30.13,29.90,3,0,7,0.02
2013-12-18,40,33,27,33,25,20,95,73,47,30.19,29.96,6,1,13,0.00
2013-12-19,59,41,26,32,27,22,91,62,31,30.18,30.03,5,1,11,0.00
2013-12-20,59,51,40,43,34,28,68,53,38,30.07,29.95,4,1,13,0.00
2013-12-21,70,61,52,61,51,42,85,70,56,29.98,29.85,8,3,17,0.00
2013-12-22,70,64,61,63,61,58,98,89,70,29.97,29.78,7,3,21,0.21
2013-12-23,62,54,39,62,51,28,100,89,64,30.20,29.88,9,2,18,0.82
2013-12-24,40,34,23,27,18,6,66,54,37,30.45,30.17,9,4,20,0.00
2013-12-25,31,25,20,17,11,8,71,55,41,30.55,30.36,6,2,11,0.00
2013-12-26,43,31,22,24,20,16,89,65,40,30.36,30.19,5,1,10,0.00
2013-12-27,48,35,26,25,22,19,82,61,33,30.40,30.28,4,1,10,0.00
2013-12-28,56,40,27,30,25,22,86,59,30,30.30,30.07,4,1,10,0.00
2013-12-29,47,44,39,47,40,28,100,88,54,30.07,29.50,6,1,16,1.54
2013-12-30,44,38,33,41,31,21,99,79,61,30.15,29.78,7,2,18,0.00
2013-12-31,45,35,29,30,21,16,74,57,39,30.29,30.07,11,3,23,0.00
2014-1-1,45,35,26,30,24,16,82,66,46,30.39,30.09,5,1,11,0.00
2014-1-2,38,33,29,34,30,26,96,89,81,30.09,29.59,7,1,11,0.32